TimeCST,TemperatureF,Dew PointF,Humidity,Sea Level PressureIn,VisibilityMPH,Wind Direction,Wind SpeedMPH,Gust SpeedMPH,PrecipitationIn,Events,Conditions,WindDirDegrees,DateUTC
12:52 AM,42.1,30.9,65,29.94,10.0,SSE,11.5,-,N/A,,Clear,150,2013-03-08 06:52:00
1:52 AM,44.1,30.9,60,29.91,10.0,SSE,13.8,-,N/A,,Clear,160,2013-03-08 07:52:00
2:52 AM,43.0,30.9,62,29.90,10.0,SSE,15.0,-,N/A,,Clear,160,2013-03-08 08:52:00
3:52 AM,45.0,33.1,63,29.88,10.0,South,13.8,-,N/A,,Clear,170,2013-03-08 09:52:00
4:52 AM,45.0,34.0,65,29.86,10.0,SSE,15.0,-,N/A,,Clear,160,2013-03-08 10:52:00
5:52 AM,46.0,36.0,68,29.87,10.0,South,16.1,-,N/A,,Clear,170,2013-03-08 11:52:00
6:52 AM,45.0,36.0,71,29.89,10.0,SSE,16.1,-,N/A,,Clear,160,2013-03-08 12:52:00
7:52 AM,46.0,37.9,73,29.90,10.0,SSE,19.6,25.3,N/A,,Partly Cloudy,150,2013-03-08 13:52:00
8:52 AM,48.0,39.9,74,29.92,10.0,SSE,20.7,-,N/A,,Partly Cloudy,160,2013-03-08 14:52:00
9:52 AM,52.0,41.0,66,29.92,10.0,South,24.2,-,N/A,,Scattered Clouds,170,2013-03-08 15:52:00
10:52 AM,57.9,43.0,58,29.90,10.0,South,20.7,-,N/A,,Scattered Clouds,170,2013-03-08 16:52:00
11:52 AM,57.9,43.0,58,29.88,10.0,SSE,23.0,31.1,N/A,,Clear,160,2013-03-08 17:52:00
12:52 PM,63.0,45.0,52,29.86,10.0,South,20.7,-,N/A,,Partly Cloudy,170,2013-03-08 18:52:00
1:52 PM,61.0,46.0,58,29.81,10.0,SSE,18.4,29.9,N/A,,Scattered Clouds,160,2013-03-08 19:52:00
2:52 PM,61.0,48.0,62,29.80,10.0,South,23.0,29.9,0.00,Rain,Light Rain,170,2013-03-08 20:52:00
3:52 PM,62.1,48.9,62,29.76,10.0,SSE,20.7,29.9,0.00,,Mostly Cloudy,150,2013-03-08 21:52:00
4:52 PM,61.0,50.0,67,29.77,9.0,SSE,29.9,35.7,N/A,,Overcast,160,2013-03-08 22:52:00
5:17 PM,60.8,50.0,68,29.79,9.0,SSE,31.1,39.1,N/A,,Mostly Cloudy,160,2013-03-08 23:17:00
5:52 PM,57.0,48.9,74,29.77,9.0,South,25.3,35.7,N/A,,Mostly Cloudy,170,2013-03-08 23:52:00
6:52 PM,55.9,50.0,80,29.77,9.0,South,24.2,-,N/A,,Overcast,170,2013-03-09 00:52:00
7:52 PM,55.9,51.1,84,29.76,9.0,SSE,20.7,29.9,N/A,,Overcast,160,2013-03-09 01:52:00
8:52 PM,55.9,51.1,84,29.75,8.0,SSE,23.0,33.4,N/A,,Overcast,160,2013-03-09 02:52:00
9:02 PM,55.4,51.8,88,29.77,8.0,SSE,20.7,33.4,N/A,,Overcast,160,2013-03-09 03:02:00
9:52 PM,55.9,52.0,87,29.74,8.0,South,25.3,31.1,N/A,,Overcast,170,2013-03-09 03:52:00
10:52 PM,55.0,52.0,89,29.75,5.0,South,21.9,-,0.01,Rain,Light Rain,170,2013-03-09 04:52:00
11:14 PM,55.4,53.6,94,29.79,2.5,South,25.3,41.4,0.04,Rain,Rain,170,2013-03-09 05:14:00
11:22 PM,55.4,53.6,94,29.78,7.0,South,18.4,31.1,0.04,,Overcast,170,2013-03-09 05:22:00
11:49 PM,55.4,53.6,94,29.77,7.0,SSE,16.1,-,0.05,Rain,Light Rain,160,2013-03-09 05:49:00
11:52 PM,55.0,52.0,89,29.73,7.0,South,13.8,-,0.05,Rain,Light Rain,170,2013-03-09 05:52:00